weather.gov     
National Weather Service

Regional Weather Roundup
NWS Homepage
This page is being discontinued on March 12, 2014.
The same data is available at this site. Please update your bookmarks.
Thank you, and we apologize for the inconvenience.
Please send an email to SR-SRH.Webmaster@noaa.gov with any concerns.


Current Version
Previous Version:    01  02  03  04  05  06  07  08  09  10  11  12  13  14  15  16  17  18  19  20  21  22  23  24  25  26  27  28  29  30  
   31  32  33  34  35  36  37  38  39  40  41  42  43  44  45  46  47  48  49  50  51  52  53  
[Printable]
151
ASUS43 KGRB 230110
RWRGRB

NORTH-CENTRAL AND NORTHEAST WISCONSIN REGIONAL WEATHER ROUNDUP
NATIONAL WEATHER SERVICE GREEN BAY WI
800 PM CDT FRI AUG 22 2014

WIZ005-009-010>012-018-019-230200-
NORTH CENTRAL WISCONSIN

CITY           SKY/WX    TMP DP  RH WIND       PRES   REMARKS
IRONWOOD       CLOUDY    61  61 100 W3        30.00F VSB 1/2
MANITOWISH WTR CLOUDY    68  68 100 N6        30.02S
ARBOR VITAE    MOCLDY    72  68  87 NW3       30.02R
EAGLE RIVER    CLOUDY    70  70 100 CALM      30.01S FOG
LAND O LAKES   CLOUDY    69  69  99 CALM      30.03S FOG
RHINELANDER    CLOUDY    72  70  93 CALM      30.02S
PHILLIPS       CLOUDY    70  68  95 N5        30.01S
ANTIGO         CLOUDY    71  70  97 E5        30.02R FOG
TOMAHAWK       MOCLDY    71  69  93 CALM      30.01S FOG
MERRILL        MOCLDY    72  71  99 CALM      30.00R FOG
$$

WIZ013-073-230200-
NORTHEAST WISCONSIN

CITY           SKY/WX    TMP DP  RH WIND       PRES   REMARKS
IRON MOUNTAIN  CLOUDY    73  69  87 SE7       29.99S
MARINETTE      MOCLDY    70  66  88 E10       29.98S
OCONTO         PTCLDY    70  70 100 E3        29.98R
$$

WIZ017-030-035>037-045-230200-
CENTRAL WISCONSIN

CITY           SKY/WX    TMP DP  RH WIND       PRES   REMARKS
MEDFORD        CLOUDY    73  71  95 NE5       30.00S FOG
WAUSAU         MOCLDY    76  72  87 NE7       29.97R
MOSINEE        NOT AVBL
MARSHFIELD     PTCLDY    78  71  79 CALM      29.97R
WISC RAPIDS    PTCLDY    80  74  81 CALM      29.97R
STEVENS POINT  CLOUDY    78  71  80 E3        29.97S
WAUPACA        MOCLDY    76  74  92 CALM      29.96R FOG
SHAWANO        CLOUDY    76  72  85 E6        29.97S
CLINTONVILLE   CLOUDY    75  72  88 E5        29.97R
$$

WIZ038-039-048-051-230200-
FOX VALLEY

CITY           SKY/WX    TMP DP  RH WIND       PRES   REMARKS
NWS GREEN BAY  MOCLDY    74  70  87 E7        29.97R
APPLETON       MOCLDY    75  68  78 E9        29.97R
OSHKOSH        MOCLDY    77  72  84 E8        29.96R
FOND DU LAC    PTCLDY    76  70  82 SE8       29.96R
$$

WIZ022-050-052-230200-
EAST CENTRAL WISCONSIN

CITY           SKY/WX    TMP DP  RH WIND       PRES   REMARKS
STURGEON BAY   CLOUDY    70  66  88 E6        30.00S
MANITOWOC      FOG       69  68  96 E3        29.99S VSB 1/4
SHEBOYGAN      CLOUDY    69  67  93 NE5       29.99R
$$

LMZ563-521-522-541>543-230200-
LAKESHORE

STATION/POSITION TIME  TEMP    WIND        PRES    VSBY  WAVE
                       AIR SEA DIR/SP/G                  HT/PER
                 (UTC) (F)     (DEG/KT/KT) (MB)    (MI)  (FT/S)
SHEBOYGAN LKSHOR 0100   67 67  100/  2/  2 1015.5R
KEWAUNEE LKSHORE 0100   67      30/  2/  4 1014.7S
NORTHPORT PIER   0100   67     120/  3/  4 1015.9R
N MID LAKE BUOY  0100   68 66   80/  6/  8 1015.2S         0
S GREEN BAY BUOY 0000   72     VRB 10      1016.0R
SISTER BAY LKSHO 0000   69     120/  9/ 13   N/A
CHAMBERS ISLAND  0100   69     100/  6/  8 1015.6R
MENOMINEE LKSHOR 0100   70      90/ 10/ 11 1015.9S
$$




U.S. Dept. of Commerce
NOAA National Weather Service
1325 East West Highway
Silver Spring, MD 20910
E-mail: w-nws.webmaster@noaa.gov
Page last modified: May 16, 2007
NATIONAL WEATHER SERVICE: for Safety, for Work, for Fun - FOR LIFE